Location: Monfort
(47.1967°N, 0.2115°W)
Time: 04:13:23
(UTC+00:00)

Cosmos 1697 Rocket - Pass Details

Date: 24 October 2020
Orbit: 831 x 845 km, 71.0° (Epoch: 01 December)

Event Time Altitude Azimuth Distance (km) Brightness Sun altitude
Rises 18:26:55 0° 167° (SSE) 3,362 5.7 -15.9°
Reaches altitude 10° 18:29:45 10° 154° (SSE) 2,434 4.8 -16.4°
Enters shadow 18:32:53 22° 122° (ESE) 1,732 3.8 -17.0°
